Regional Weather Roundup
Issued by NWS Cleveland, OH

Home | Current Version | Previous Version | Graphics & Text | Print | Product List | Glossary On
Versions: 1 2 3 4 5 6 7 8 9 10 11 12 13 14 15 16 17 18 19 20 21 22 23 24 25 26 27 28 29 30 31 32 33 34 35 36 37 38 39 40 41 42 43 44 45 46 47 48 49 50
000
ASUS41 KCLE 180600
RWRCLE
OHIO REGIONAL WEATHER ROUNDUP
NATIONAL WEATHER SERVICE WILMINGTON, OH
200 AM EDT THU SEP 18 2014

NOTE: "FAIR" INDICATES FEW OR NO CLOUDS BELOW 12,000 FEET WITH NO
SIGNIFICANT WEATHER AND/OR OBSTRUCTIONS TO VISIBILITY.

OHZ001>008-015>018-024>027-034-035-043-044-180700-
   NORTHWEST OHIO

CITY           SKY/WX    TMP DP  RH WIND       PRES   REMARKS
DEFIANCE       CLEAR     50  45  83 CALM      30.04R
FINDLAY        CLEAR     49  46  90 CALM      30.02R
TOLEDO EXPRESS CLEAR     48  45  89 CALM      30.03R
TOLEDO METCALF CLEAR     54  47  77 CALM      30.03R
LIMA           CLEAR     50  47  89 CALM      30.02S
$$

OHZ009>014-019>023-028>033-038-089-180700-
   NORTHEAST OHIO

CITY           SKY/WX    TMP DP  RH WIND       PRES   REMARKS
CLE-HOPKINS    PTCLDY    50  47  89 CALM      30.03S
CLE-LAKEFRONT  CLEAR     56  49  77 SE3       30.00S
CUY CO. ARPT   NOT AVBL
LORAIN-ELYRIA  CLEAR     53  49  86 CALM      30.02S FOG
ASHTABULA      CLEAR     44  43  96 CALM      30.02S FOG
AKRON-CANTON   CLEAR     53  48  83 E3        30.02R
WOOSTER        NOT AVBL
MANSFIELD      CLEAR     50  48  93 CALM      30.02S
YOUNGSTOWN     PTCLDY    47  46  97 CALM      30.01S
$$

OHZ042-051>053-060>062-070>072-077>081-180700-
  SOUTHWEST OHIO

CITY           SKY/WX    TMP DP  RH WIND       PRES   REMARKS
CINC-COVINGTON CLEAR     54  48  80 CALM      30.02S
CINC-LUNKEN    CLEAR     49  48  97 CALM      30.04R FOG
HAMILTON       CLEAR     48  47  96 CALM      30.04R FOG
DAYTON         NOT AVBL
WRIGHT-PAT AFB NOT AVBL
DAYTON GENERAL CLEAR     51  49  92 CALM      30.02S
WILMINGTON     CLEAR     46  44  93 CALM      30.02S FOG
$$

OHZ036-037-039>041-045>050-054>059-063>069-073>076-082>088-180700-
  CENTRAL AND SOUTHEAST OHIO

CITY           SKY/WX    TMP DP  RH WIND       PRES   REMARKS
COLUMBUS       PTCLDY    53  47  79 CALM      30.01S
OSU AIRPORT    CLEAR     49  46  90 W3        30.01S
BOLTON FIELD   NOT AVBL
RICKENBACK AFB NOT AVBL
NEWARK         CLOUDY    49  47  93 CALM      30.01S FOG
MARION         CLEAR     49  45  86 CALM      30.02S
LANCASTER      CLOUDY    50  48  93 CALM      30.01S
ZANESVILLE     MOCLDY    52  48  86 CALM      30.01R
NEW PHILLY     MOCLDY    52  51  97 CALM      30.02
$$



USA.gov is the U.S. government's official web portal to all federal, state and local government web resources and services.